Flag for Germany Weather past 2 weeks in Bühl, Baden-Württemberg, Germany

Now
63 °F

Passing clouds.


Feels Like: 63 °F
Forecast: 49 / 72 °F
Wind: 7 mph from North

Location: Karlsruhe - Baden Wurttemberg


UV Index: 3 (Moderate)

Visibility: N/A


Pressure: 30.07 "Hg

Humidity: 59%

Dew point: 48 °F

Location of BühlLocation

Historic Weather in Bühl

°F

Bühl temperature yesterday

Maximum temperature yesterday: 72 °F (at 2:20 PM)
Minimum temperature yesterday: 43 °F (at 6:20 AM)
Average temperature yesterday: 58 °F

Past Weeks' High & Low Weather Summary

 TemperatureHumidityPressure
High72 °F (Apr 23, 2:20 PM)100% (Apr 19, 5:50 AM)30.36 "Hg (Apr 19, 5:50 AM)
Low34 °F (Apr 16, 5:20 AM)24% (Apr 17, 3:20 PM)29.62 "Hg (Apr 20, 5:20 PM)
Average53 °F60%30.03 "Hg
* Reported Apr 9 10:20 AM — Apr 24 10:50 AM, Bühl, Weather by CustomWeather, © 2014

Note: Actual official high and low records may vary slightly from our data, if they occured in-between our weather recording intervals... More about our weather records

Advertising

Historic Weather Conditions — Data for Previous 24 hours

 ConditionsComfort  
Time TempWeatherWind HumidityBarometerVisibility
10:50 AM
Apr 24
61 °FPassing clouds.7 mph68%30.07 "HgN/A
10:20 AM59 °FPassing clouds.5 mph72%30.09 "HgN/A
9:50 AM57 °FPassing clouds.5 mph77%30.09 "HgN/A
9:20 AM55 °FSunny.5 mph82%30.09 "Hg10 mi
8:50 AM54 °FSunny.3 mph88%30.09 "Hg10 mi
8:20 AM52 °FSunny.2 mph94%30.09 "Hg10 mi
7:50 AM50 °FSunny.2 mph94%30.09 "Hg10 mi
7:20 AM46 °FSunny.3 mph93%30.07 "Hg10 mi
6:50 AM46 °FFog.3 mph93%30.07 "HgN/A
6:20 AM45 °FFog.3 mph93%30.07 "Hg3 mi
5:50 AM45 °FFog.2 mph93%30.07 "Hg1 mi
5:20 AM46 °FFog.1 mph93%30.09 "Hg1 mi
4:50 AM48 °FFog.No wind94%30.09 "Hg3 mi
11:20 PM
Apr 23
50 °FLight fog.1 mph94%30.09 "Hg4 mi
10:50 PM52 °FLight fog.1 mph94%30.09 "Hg6 mi
10:20 PM52 °FClear.5 mph94%30.09 "Hg10 mi
9:50 PM54 °FClear.2 mph88%30.09 "Hg10 mi
9:20 PM55 °FSunny.2 mph88%30.07 "Hg6 mi
8:50 PM55 °FSunny.5 mph88%30.07 "Hg10 mi
8:20 PM57 °FSunny.3 mph88%30.07 "Hg10 mi
7:50 PM57 °FSunny.6 mph88%30.04 "Hg10 mi
7:20 PM57 °FPassing clouds.6 mph82%30.04 "HgN/A
6:50 PM57 °FSprinkles. Partly sunny.2 mph82%30.07 "HgN/A
6:20 PM59 °FThundershowers. Partly sunny.9 mph72%30.07 "Hg5 mi
5:50 PM59 °FThundershowers. Partly sunny.17 mph77%30.07 "HgN/A
5:20 PM66 °FThundershowers. Scattered clouds.13 mph46%30.04 "HgN/A
4:50 PM72 °FScattered showers. Scattered clouds.7 mph33%30.04 "HgN/A
4:20 PM72 °FScattered showers. Scattered clouds.8 mph33%30.04 "HgN/A
3:50 PM72 °FScattered showers. Scattered clouds.8 mph36%30.04 "HgN/A
3:20 PM72 °FPassing clouds.9 mph38%30.04 "HgN/A
2:50 PM72 °FPassing clouds.8 mph36%30.07 "HgN/A
2:20 PM72 °FPassing clouds.8 mph38%30.07 "HgN/A
1:50 PM70 °FPassing clouds.7 mph40%30.07 "HgN/A
1:20 PM68 °FPassing clouds.6 mph46%30.07 "HgN/A
12:50 PM68 °FSunny.3 mph46%30.09 "Hg10 mi
12:20 PM66 °FSunny.3 mph49%30.09 "Hg10 mi
11:50 AM64 °FSunny.2 mph52%30.09 "Hg10 mi
11:20 AM63 °FSunny.3 mph59%30.09 "Hg10 mi
Weather by CustomWeather, © 2014

See weather overview